Simultaneous Nadir Overpasses (SNOs) Predictions

Prediction of SNOs between METOP-B and TERRA Satellite Orbit:

Table of predicted SNOs for the next 14.0 days since TLE Epoch: 2/28/2015
Index Date (METOP-B) Time (METOP-B) Lat,Lon (METOP-B) SZA (METOP-B ) Date (TERRA) Time (TERRA) Lat,Lon (TERRA) SZA (TERRA ) Distance(km) Time Diff (sec)
1 02/28/2015 10:17:00 -81.29,-107.19 88.34 02/28/2015 10:17:12 -81.28,-107.27 88.35 1.36 12
2 02/28/2015 11:07:40 81.29, 60.59 91.70 02/28/2015 11:06:38 81.29, 60.46 91.66 2.29 62
3 03/03/2015 05:00:46 81.28, 151.46 90.58 03/03/2015 05:01:56 81.28, 151.45 90.60 0.55 70
4 03/03/2015 05:51:25 -81.29, -40.59 89.37 03/03/2015 05:51:22 -81.29, -40.61 89.37 0.50 3
5 03/06/2015 00:35:10 81.28,-142.02 89.53 03/06/2015 00:36:04 81.29,-141.92 89.57 1.83 54
6 03/
